Location: Fort Worth, Tx
(32.7431°N, 97.3695°W)
Time: 05:43:35
(UTC-05:00)

Altair - Pass Details

Date: 03 October 2023
Orbit: 1501 x 1682 km, 47.2° (Epoch: 06 December)

Event Time Altitude Azimuth Distance (km) Brightness Sun altitude
Rises 07:38:04 0° 298° (WNW) 4,846 - -10.7°
Exits shadow 07:39:35 - 301° (WNW) 4,416 9.4 -10.3°
Reaches altitude 10° 07:41:32 10° 306° (NW) 3,883 9.1 -9.9°
Maximum altitude 07:50:39 38° 12° (NNE) 2,366 8.6 -8.0°
Drops below altitude 10° 07:59:55 10° 78° (ENE) 3,944 11.3 -6.1°
Sets 08:03:27 0° 86° (E) 4,929 12.9 -5.3°
